• In Hungary
  • List of Countries
  • For 7 days
  • Water Temperature
  • Satellite Maps
  • Weather Map
  • News
  • Weather Widgets
  • user-avatar
    Login

    Hourly Weather Grachevka

    Today, 17 July, Tuesday

    Time Temperature Precipitation Wind Pressure Humidity
    00:00 +22°C° 0.4 mm 3 mps 749 mmHg 83%
    01:00 +21°C° 0.1 mm 3 mps 749 mmHg 85%
    02:00 +21°C° 0.1 mm 3 mps 749 mmHg 86%
    03:00 +21°C° 0 mm 2 mps 749 mmHg 88%
    04:00 +21°C° 0.1 mm 3 mps 749 mmHg 87%
    05:00 +21°C° 0.1 mm 3 mps 749 mmHg 86%
    06:00 +22°C° 0.1 mm 4 mps 748 mmHg 85%
    07:00 +22°C° 0 mm 4 mps 748 mmHg 84%
    08:00 +22°C° 0 mm 5 mps 748 mmHg 83%
    09:00 +22°C° 0 mm 5 mps 748 mmHg 82%
    10:00 +23°C° 0.3 mm 6 mps 748 mmHg 80%
    11:00 +24°C° 0.3 mm 6 mps 747 mmHg 78%
    12:00 +24°C° 0.3 mm 6 mps 747 mmHg 77%
    13:00 +24°C° 1.3 mm 6 mps 747 mmHg 80%
    14:00 +23°C° 1.3 mm 6 mps 747 mmHg 83%
    15:00 +23°C° 1.3 mm 6 mps 746 mmHg 86%
    16:00 +23°C° 0.5 mm 6 mps 746 mmHg 84%
    17:00 +24°C° 0.5 mm 6 mps 746 mmHg 82%
    18:00 +24°C° 0.5 mm 6 mps 746 mmHg 80%
    19:00 +23°C° 0.4 mm 6 mps 746 mmHg 83%
    20:00 +22°C° 0.4 mm 5 mps 746 mmHg 86%
    21:00 +22°C° 0.4 mm 4 mps 746 mmHg 88%
    22:00 +21°C° 0 mm 4 mps 746 mmHg 90%
    23:00 +21°C° 0 mm 4 mps 746 mmHg 91%

    Tomorrow, 18 July, Wednesday

    Time Temperature Precipitation Wind Pressure Humidity
    00:00 +20°C° 0 mm 3 mps 746 mmHg 92%
    01:00 +20°C° 0 mm 3 mps 746 mmHg 92%
    02:00 +20°C° 0 mm 3 mps 746 mmHg 92%
    03:00 +20°C° 0 mm 2 mps 746 mmHg 92%
    04:00 +21°C° 0 mm 2 mps 746 mmHg 89%
    05:00 +21°C° 0 mm 2 mps 746 mmHg 86%
    06:00 +23°C° 0 mm 2 mps 746 mmHg 84%
    07:00 +25°C° 0.3 mm 2 mps 746 mmHg 77%
    08:00 +27°C° 0.3 mm 3 mps 746 mmHg 71%
    09:00 +28°C° 0.3 mm 3 mps 746 mmHg 65%
    10:00 +29°C° 0.7 mm 3 mps 746 mmHg 61%
    11:00 +30°C° 0.7 mm 3 mps 746 mmHg 57%
    12:00 +32°C° 0.7 mm 4 mps 746 mmHg 54%
    13:00 +30°C° 0.4 mm 3 mps 746 mmHg 55%
    14:00 +30°C° 0.4 mm 3 mps 746 mmHg 56%
    15:00 +30°C° 0.4 mm 2 mps 746 mmHg 57%
    16:00 +29°C° 0.5 mm 2 mps 746 mmHg 60%
    17:00 +29°C° 0.5 mm 2 mps 746 mmHg 63%
    18:00 +29°C° 0.5 mm 1 mps 747 mmHg 67%
    19:00 +27°C° 0.5 mm 1 mps 747 mmHg 68%
    20:00 +25°C° 0.5 mm 1 mps 747 mmHg 70%
    21:00 +24°C° 0.5 mm 1 mps 747 mmHg 72%
    22:00 +23°C° 0.2 mm 1 mps 747 mmHg 74%
    23:00 +23°C° 0.2 mm 1 mps 747 mmHg 75%

    Day after tomorrow, 19 July, Thursday

    Time Temperature Precipitation Wind Pressure Humidity
    00:00 +22°C° 0.2 mm 1 mps 747 mmHg 77%
    01:00 +22°C° 0.2 mm 1 mps 748 mmHg 78%
    02:00 +22°C° 0.2 mm 1 mps 748 mmHg 79%
    03:00 +21°C° 0.2 mm 1 mps 748 mmHg 80%
    04:00 +22°C° 0.1 mm 1 mps 748 mmHg 78%
    05:00 +23°C° 0.1 mm 1 mps 748 mmHg 76%
    06:00 +24°C° 0.1 mm 1 mps 749 mmHg 74%
    07:00 +25°C° 0.1 mm 1 mps 749 mmHg 69%
    08:00 +27°C° 0.1 mm 2 mps 749 mmHg 64%
    09:00 +28°C° 0.1 mm 2 mps 749 mmHg 59%
    10:00 +29°C° 0.3 mm 2 mps 749 mmHg 56%
    11:00 +30°C° 0.3 mm 3 mps 749 mmHg 52%
    12:00 +31°C° 0.3 mm 3 mps 749 mmHg 48%
    13:00 +31°C° 0.1 mm 3 mps 749 mmHg 50%
    14:00 +31°C° 0.1 mm 2 mps 749 mmHg 52%
    15:00 +31°C° 0.1 mm 2 mps 750 mmHg 53%
    16:00 +30°C° 0 mm 1 mps 750 mmHg 56%
    17:00 +30°C° 0 mm 1 mps 750 mmHg 58%
    18:00 +28°C° 0 mm 0 mps 750 mmHg 60%
    19:00 +26°C° 0 mm 0 mps 750 mmHg 63%
    20:00 +27°C° 0 mm 1 mps 750 mmHg 65%
    21:00 +25°C° 0 mm 1 mps 750 mmHg 68%
    22:00 +24°C° 0 mm 1 mps 750 mmHg 69%
    23:00 +24°C° 0 mm 1 mps 750 mmHg 71%

    20 July, Friday

    Time Temperature Precipitation Wind Pressure Humidity
    00:00 +23°C° 0 mm 1 mps 750 mmHg 72%
    01:00 +23°C° 0.3 mm 1 mps 750 mmHg 74%
    02:00 +22°C° 0.3 mm 1 mps 750 mmHg 75%
    03:00 +22°C° 0.3 mm 1 mps 750 mmHg 77%
    04:00 +23°C° 0 mm 1 mps 750 mmHg 75%
    05:00 +24°C° 0 mm 1 mps 751 mmHg 74%
    06:00 +25°C° 0 mm 1 mps 751 mmHg 72%
    07:00 +26°C° 0 mm 1 mps 751 mmHg 67%
    08:00 +28°C° 0 mm 1 mps 751 mmHg 61%
    09:00 +30°C° 0 mm 1 mps 751 mmHg 56%
    10:00 +31°C° 0 mm 1 mps 751 mmHg 52%
    11:00 +32°C° 0 mm 1 mps 751 mmHg 48%
    12:00 +33°C° 0 mm 1 mps 751 mmHg 44%
    13:00 +33°C° 0 mm 1 mps 750 mmHg 46%
    14:00 +32°C° 0 mm 1 mps 750 mmHg 48%
    15:00 +32°C° 0 mm 2 mps 750 mmHg 50%
    16:00 +31°C° 0 mm 2 mps 750 mmHg 54%
    17:00 +31°C° 0 mm 2 mps 750 mmHg 58%
    18:00 +30°C° 0 mm 3 mps 750 mmHg 63%
    19:00 +29°C° 0 mm 3 mps 750 mmHg 67%
    20:00 +27°C° 0 mm 3 mps 750 mmHg 72%
    21:00 +25°C° 0 mm 3 mps 750 mmHg 76%
    22:00 +25°C° 0.3 mm 3 mps 750 mmHg 79%
    23:00 +24°C° 0.3 mm 3 mps 750 mmHg 82%

    21 July, Saturday

    Time Temperature Precipitation Wind Pressure Humidity
    00:00 +22°C° 0.3 mm 3 mps 750 mmHg 85%
    01:00 +23°C° 0.2 mm 2 mps 750 mmHg 86%
    02:00 +21°C° 0.2 mm 2 mps 750 mmHg 87%
    03:00 +21°C° 0.2 mm 2 mps 751 mmHg 87%
    04:00 +23°C° 0.5 mm 2 mps 751 mmHg 86%
    05:00 +23°C° 0.5 mm 2 mps 751 mmHg 85%
    06:00 +24°C° 0.5 mm 3 mps 751 mmHg 84%
    07:00 +25°C° 0 mm 3 mps 751 mmHg 80%
    08:00 +27°C° 0 mm 3 mps 751 mmHg 75%
    09:00 +28°C° 0 mm 4 mps 751 mmHg 70%
    10:00 +29°C° 0.6 mm 4 mps 751 mmHg 66%
    11:00 +30°C° 0.6 mm 4 mps 751 mmHg 63%
    12:00 +30°C° 0.6 mm 4 mps 751 mmHg 59%
    13:00 +30°C° 0.3 mm 4 mps 751 mmHg 60%
    14:00 +30°C° 0.3 mm 5 mps 751 mmHg 62%
    15:00 +30°C° 0.3 mm 5 mps 751 mmHg 63%
    16:00 +29°C° 0.6 mm 5 mps 751 mmHg 68%
    17:00 +28°C° 0.6 mm 4 mps 751 mmHg 72%
    18:00 +27°C° 0.6 mm 4 mps 751 mmHg 76%
    19:00 +26°C° 0.2 mm 4 mps 752 mmHg 77%
    20:00 +25°C° 0.2 mm 5 mps 752 mmHg 77%
    21:00 +25°C° 0.2 mm 5 mps 752 mmHg 78%
    22:00 +23°C° 0 mm 5 mps 752 mmHg 79%
    23:00 +22°C° 0 mm 5 mps 752 mmHg 80%

    22 July, Sunday

    Time Temperature Precipitation Wind Pressure Humidity
    00:00 +22°C° 0 mm 5 mps 752 mmHg 81%
    01:00 +21°C° 0 mm 5 mps 752 mmHg 80%
    02:00 +21°C° 0 mm 5 mps 752 mmHg 79%
    03:00 +21°C° 0 mm 5 mps 753 mmHg 79%
    04:00 +21°C° 0 mm 5 mps 753 mmHg 79%
    05:00 +21°C° 0 mm 6 mps 753 mmHg 78%
    06:00 +21°C° 0 mm 6 mps 753 mmHg 78%
    07:00 +22°C° 0 mm 7 mps 753 mmHg 75%
    08:00 +23°C° 0 mm 7 mps 753 mmHg 73%
    09:00 +24°C° 0 mm 7 mps 753 mmHg 70%
    10:00 +26°C° 0 mm 7 mps 753 mmHg 67%
    11:00 +27°C° 0 mm 7 mps 753 mmHg 65%
    12:00 +28°C° 0 mm 7 mps 753 mmHg 63%
    13:00 +28°C° 0 mm 7 mps 753 mmHg 61%
    14:00 +29°C° 0 mm 7 mps 753 mmHg 60%
    15:00 +29°C° 0 mm 7 mps 753 mmHg 59%
    16:00 +28°C° 0 mm 7 mps 753 mmHg 62%
    17:00 +27°C° 0 mm 6 mps 753 mmHg 65%
    18:00 +26°C° 0 mm 5 mps 753 mmHg 67%
    19:00 +24°C° 0.3 mm 6 mps 753 mmHg 68%
    20:00 +23°C° 0.3 mm 6 mps 754 mmHg 69%
    21:00 +22°C° 0.3 mm 6 mps 754 mmHg 69%
    22:00 +21°C° 0.1 mm 6 mps 754 mmHg 67%
    23:00 +21°C° 0.1 mm 6 mps 754 mmHg 65%
    Show more